• în Republica Moldova
  • Lista ţărilor
  • Pe 7 zile
  • Temperatura apei
  • Hartă satelitară
  • Meteo pe hartă
  • Widget-uri
  • user-avatar
    Intrare

    Meteo pe oră la Buda-Lyushevskaya

    Astăzi, 15 August, Miercuri

    Timp Temperatura Precipitaţii Vânt Presiune Umiditate
    00:00 +22°C° 0,9 mm 3 m/s 746 mmHg 74%
    01:00 +21°C° 0,9 mm 3 m/s 746 mmHg 75%
    02:00 +21°C° 0 mm 3 m/s 746 mmHg 78%
    03:00 +20°C° 0,9 mm 3 m/s 746 mmHg 81%
    04:00 +19°C° 0,9 mm 3 m/s 746 mmHg 84%
    05:00 +19°C° 0,9 mm 3 m/s 746 mmHg 88%
    06:00 +20°C° 0,2 mm 3 m/s 746 mmHg 85%
    07:00 +22°C° 0,2 mm 3 m/s 746 mmHg 81%
    08:00 +24°C° 0 mm 3 m/s 746 mmHg 78%
    09:00 +25°C° 0,8 mm 4 m/s 746 mmHg 74%
    10:00 +27°C° 0,8 mm 4 m/s 746 mmHg 69%
    11:00 +28°C° 0,8 mm 4 m/s 746 mmHg 65%
    12:00 +28°C° 0,9 mm 4 m/s 746 mmHg 63%
    13:00 +28°C° 0,9 mm 4 m/s 746 mmHg 61%
    14:00 +29°C° 0 mm 4 m/s 747 mmHg 56%
    15:00 +28°C° 0,3 mm 4 m/s 747 mmHg 59%
    16:00 +27°C° 0,3 mm 3 m/s 747 mmHg 62%
    17:00 +27°C° 0,3 mm 3 m/s 747 mmHg 66%
    18:00 +25°C° 0,3 mm 3 m/s 747 mmHg 70%
    19:00 +22°C° 0,3 mm 3 m/s 747 mmHg 75%
    20:00 +20°C° 0,3 mm 3 m/s 747 mmHg 80%
    21:00 +20°C° 0,2 mm 2 m/s 748 mmHg 82%
    22:00 +19°C° 0,2 mm 2 m/s 748 mmHg 84%
    23:00 +19°C° 0,2 mm 2 m/s 748 mmHg 85%

    Mâine, 16 August, Joi

    Timp Temperatura Precipitaţii Vânt Presiune Umiditate
    00:00 +18°C° 0 mm 2 m/s 748 mmHg 87%
    01:00 +18°C° 0 mm 2 m/s 749 mmHg 89%
    02:00 +18°C° 0 mm 2 m/s 749 mmHg 92%
    03:00 +17°C° 0 mm 2 m/s 749 mmHg 93%
    04:00 +17°C° 0 mm 2 m/s 749 mmHg 94%
    05:00 +16°C° 0 mm 1 m/s 749 mmHg 95%
    06:00 +19°C° 0 mm 1 m/s 749 mmHg 89%
    07:00 +20°C° 0 mm 1 m/s 750 mmHg 84%
    08:00 +22°C° 0 mm 1 m/s 750 mmHg 79%
    09:00 +23°C° 0 mm 2 m/s 750 mmHg 73%
    10:00 +25°C° 0 mm 2 m/s 750 mmHg 67%
    11:00 +26°C° 0 mm 2 m/s 750 mmHg 61%
    12:00 +26°C° 0 mm 2 m/s 750 mmHg 60%
    13:00 +26°C° 0 mm 2 m/s 750 mmHg 59%
    14:00 +27°C° 0 mm 2 m/s 750 mmHg 59%
    15:00 +26°C° 0,2 mm 2 m/s 750 mmHg 62%
    16:00 +26°C° 0,2 mm 2 m/s 750 mmHg 66%
    17:00 +25°C° 0,2 mm 2 m/s 750 mmHg 69%
    18:00 +24°C° 0,1 mm 2 m/s 750 mmHg 74%
    19:00 +21°C° 0,1 mm 2 m/s 750 mmHg 80%
    20:00 +21°C° 0,1 mm 1 m/s 750 mmHg 85%
    21:00 +20°C° 0 mm 1 m/s 750 mmHg 87%
    22:00 +20°C° 0 mm 1 m/s 751 mmHg 90%
    23:00 +19°C° 0 mm 1 m/s 751 mmHg 92%

    Poimâine, 17 August, Vineri

    Timp Temperatura Precipitaţii Vânt Presiune Umiditate
    00:00 +19°C° 0 mm 1 m/s 751 mmHg 93%
    01:00 +19°C° 0 mm 1 m/s 751 mmHg 94%
    02:00 +18°C° 0 mm 1 m/s 751 mmHg 95%
    03:00 +18°C° 0 mm 1 m/s 751 mmHg 95%
    04:00 +18°C° 0 mm 1 m/s 751 mmHg 95%
    05:00 +18°C° 0 mm 1 m/s 751 mmHg 96%
    06:00 +19°C° 0 mm 1 m/s 751 mmHg 91%
    07:00 +21°C° 0 mm 1 m/s 751 mmHg 87%
    08:00 +21°C° 0 mm 2 m/s 752 mmHg 82%
    09:00 +23°C° 0 mm 2 m/s 752 mmHg 76%
    10:00 +25°C° 0 mm 2 m/s 751 mmHg 70%
    11:00 +26°C° 0 mm 2 m/s 751 mmHg 64%
    12:00 +27°C° 0,2 mm 2 m/s 751 mmHg 62%
    13:00 +27°C° 0,2 mm 2 m/s 751 mmHg 60%
    14:00 +28°C° 0,2 mm 2 m/s 751 mmHg 58%
    15:00 +27°C° 0,4 mm 2 m/s 751 mmHg 63%
    16:00 +27°C° 0,4 mm 2 m/s 750 mmHg 67%
    17:00 +26°C° 0,4 mm 3 m/s 750 mmHg 71%
    18:00 +25°C° 0,3 mm 2 m/s 750 mmHg 77%
    19:00 +23°C° 0,3 mm 2 m/s 751 mmHg 83%
    20:00 +20°C° 0,3 mm 2 m/s 751 mmHg 89%
    21:00 +20°C° 0,1 mm 2 m/s 751 mmHg 91%
    22:00 +20°C° 0,1 mm 2 m/s 751 mmHg 92%
    23:00 +19°C° 0,1 mm 2 m/s 751 mmHg 94%

    18 August, Sâmbătă

    Timp Temperatura Precipitaţii Vânt Presiune Umiditate
    00:00 +19°C° 0,1 mm 2 m/s 751 mmHg 94%
    01:00 +19°C° 0,1 mm 2 m/s 751 mmHg 95%
    02:00 +18°C° 0,1 mm 2 m/s 751 mmHg 95%
    03:00 +18°C° 0,1 mm 2 m/s 751 mmHg 95%
    04:00 +18°C° 0,1 mm 2 m/s 751 mmHg 96%
    05:00 +18°C° 0,1 mm 2 m/s 751 mmHg 96%
    06:00 +19°C° 0 mm 3 m/s 751 mmHg 93%
    07:00 +20°C° 0 mm 3 m/s 751 mmHg 90%
    08:00 +21°C° 0 mm 3 m/s 751 mmHg 87%
    09:00 +22°C° 0,6 mm 3 m/s 751 mmHg 82%
    10:00 +23°C° 0,6 mm 4 m/s 751 mmHg 78%
    11:00 +26°C° 0,6 mm 4 m/s 751 mmHg 73%
    12:00 +26°C° 1 mm 4 m/s 751 mmHg 72%
    13:00 +26°C° 1 mm 3 m/s 751 mmHg 71%
    14:00 +27°C° 1 mm 3 m/s 750 mmHg 70%
    15:00 +26°C° 0,9 mm 3 m/s 750 mmHg 72%
    16:00 +26°C° 0,9 mm 2 m/s 750 mmHg 75%
    17:00 +26°C° 0,9 mm 2 m/s 750 mmHg 77%
    18:00 +25°C° 0,4 mm 2 m/s 750 mmHg 81%
    19:00 +23°C° 0,4 mm 2 m/s 750 mmHg 84%
    20:00 +21°C° 0,4 mm 2 m/s 750 mmHg 88%
    21:00 +21°C° 0,1 mm 2 m/s 750 mmHg 89%
    22:00 +20°C° 0,1 mm 2 m/s 750 mmHg 90%
    23:00 +20°C° 0,1 mm 2 m/s 750 mmHg 91%

    19 August, Duminică

    Timp Temperatura Precipitaţii Vânt Presiune Umiditate
    00:00 +19°C° 0,1 mm 2 m/s 750 mmHg 91%
    01:00 +19°C° 0,1 mm 2 m/s 750 mmHg 92%
    02:00 +19°C° 0,1 mm 2 m/s 750 mmHg 92%
    03:00 +19°C° 0 mm 2 m/s 750 mmHg 93%
    04:00 +19°C° 0 mm 1 m/s 750 mmHg 93%
    05:00 +19°C° 0 mm 1 m/s 751 mmHg 93%
    06:00 +20°C° 0 mm 1 m/s 751 mmHg 90%
    07:00 +22°C° 0 mm 1 m/s 751 mmHg 86%
    08:00 +23°C° 0 mm 1 m/s 751 mmHg 82%
    09:00 +24°C° 0,8 mm 1 m/s 751 mmHg 77%
    10:00 +26°C° 0,8 mm 2 m/s 751 mmHg 72%
    11:00 +27°C° 0,8 mm 2 m/s 751 mmHg 66%
    12:00 +27°C° 0,8 mm 2 m/s 750 mmHg 63%
    13:00 +28°C° 0,8 mm 2 m/s 750 mmHg 59%
    14:00 +28°C° 0,8 mm 2 m/s 750 mmHg 56%
    15:00 +28°C° 0,2 mm 1 m/s 750 mmHg 58%
    16:00 +28°C° 0,2 mm 1 m/s 750 mmHg 60%
    17:00 +28°C° 0,2 mm 1 m/s 750 mmHg 62%
    18:00 +26°C° 0,1 mm 1 m/s 750 mmHg 66%
    19:00 +24°C° 0,1 mm 1 m/s 750 mmHg 70%
    20:00 +22°C° 0,1 mm 1 m/s 750 mmHg 75%
    21:00 +22°C° 0 mm 1 m/s 750 mmHg 77%
    22:00 +21°C° 0 mm 1 m/s 750 mmHg 79%
    23:00 +20°C° 0 mm 1 m/s 750 mmHg 81%

    20 August, Luni

    Timp Temperatura Precipitaţii Vânt Presiune Umiditate
    00:00 +20°C° 0 mm 1 m/s 750 mmHg 83%
    01:00 +20°C° 0 mm 1 m/s 750 mmHg 85%
    02:00 +19°C° 0 mm 1 m/s 750 mmHg 87%
    03:00 +19°C° 0 mm 1 m/s 750 mmHg 88%
    04:00 +19°C° 0 mm 1 m/s 750 mmHg 90%
    05:00 +17°C° 0 mm 2 m/s 750 mmHg 92%
    06:00 +19°C° 0 mm 2 m/s 750 mmHg 87%
    07:00 +20°C° 0 mm 2 m/s 750 mmHg 82%
    08:00 +21°C° 0 mm 2 m/s 751 mmHg 77%
    09:00 +23°C° 0 mm 2 m/s 751 mmHg 71%
    10:00 +25°C° 0 mm 2 m/s 751 mmHg 65%
    11:00 +26°C° 0 mm 2 m/s 751 mmHg 59%
    12:00 +26°C° 0 mm 2 m/s 751 mmHg 57%
    13:00 +27°C° 0 mm 2 m/s 750 mmHg 54%
    14:00 +27°C° 0 mm 2 m/s 750 mmHg 51%
    15:00 +27°C° 0,1 mm 2 m/s 750 mmHg 55%
    16:00 +26°C° 0,1 mm 2 m/s 750 mmHg 59%
    17:00 +26°C° 0,1 mm 2 m/s 750 mmHg 62%
    18:00 +24°C° 0 mm 2 m/s 750 mmHg 69%
    19:00 +23°C° 0 mm 2 m/s 750 mmHg 75%
    20:00 +20°C° 0 mm 2 m/s 750 mmHg 82%
    21:00 +19°C° 0 mm 2 m/s 750 mmHg 84%
    22:00 +20°C° 0 mm 1 m/s 750 mmHg 86%
    23:00 +19°C° 0 mm 1 m/s 750 mmHg 88%
    Arată mai mult